STARLINK-11261, 60724

Orbit data source: Space-Track

STARLINK-11261, 60724 is a payload satellite owned by SpaceX/Seattle (US) in LEO that was launched on Wed, 28 Aug 2024 UTC via an FALCON 9 launch vehicle from the Air Force Eastern Test Range (AFETR). Payloads include a variety of satellites, spacecraft, and rockets equipped with specific instruments for various scientific and technological missions. These include communications satellites like Starlink; space stations such as the ISS; scientific satellites like the Hubble; Earth observation satellites from companies like Planet Labs, Umbra, and HawkEye 360; GPS; miniature CubeSats for education and research; and military/defense satellites.

Loading next visibility...
STARLINK-11261 details
Identifier
60724, 2024-152E
Orbit
LEO
Last TLE update17 hours ago
Origin
Flag of USSpaceX/Seattle (US)
ManufacturerSpaceX/Seattle
MissionOperational spacecraft
Bus & MotorSTARLINK V2M, Unknown motor
Mass730 kg wet, ~700 kg dry
Launch date (UTC)
2024-08-28 (4 months ago)
Launch vehicle
FALCON 9
Launch site
Air Force Eastern Test Range (AFETR)
Object type
Payload
Rocket body
Debris
Shape & HBRUnknown
Radar Cross SectionLarge (>1 m²)

Expand to show TLE details & history

TLE from 17 hours ago
0 STARLINK-11261
1 60724U 24152E   24355.85441446  .00002928  00000-0  29041-4 0  9999
2 60724  53.1605 144.3607 0000838  43.0218 317.0865 15.69685045 19136
Epoch: 2024-12-20T20:30Z
Definitive object data (Epoch: 2024-12-20T20:30:21.409Z)
Latitude-0.00004°
Longitude106.85752°
Altitude360.3 km
Speed7.695 km/s
True Right ascension09h 37m 26s
True Declination0° 00' 00"
Sunlit
Object was in full shadow at TLE epoch
Visualization TLE readout
Latitude33.00844°
Longitude-105.65872°
Altitude362.012 km
Speed7.697 km/s
Apparent Right ascension21h 57m 17s
Apparent Declination-3° 00' 24"
Sunlit
Object is in daylight
Visualization observer readout
Local Sidereal Time12:55:51
Azimuth59.359° ENE
Elevation-35.353°
Doppler factor1
Orbital elements
Apogee altitude360.623 km
Perigee altitude359.494 km
Semi-major axis6,738.196 km
Eccentricity0.0000838
Inclination53.1605°
RAAN144.3607°
Arg. of periapsis43.0218°
True anomaly317.07996°
Mean anomaly317.0865°
Eccentric anomaly317.08323°
Mean motion3.92399 °/min
BSTAR0.000029041
Orbital period91.74 mins
Loading maneuver chart data...
Loading historical data...
Loading historical data...
Loading historical data...
Loading historical data...
Loading historical data...
Loading historical data...
Loading historical data...

STARLINK-11261 Visibility forecast

Observer location: undefined°, undefined

Span
Click to sort rows by Start time (UTC) header in descending order
Start Az.
Max El. time (UTC)
Max El. Az.
Max El.
End time (UTC)
End Az.
4 mins2024-12-21 19:56:49.055Z294.276° NW2024-12-21 19:58:49.055Z199.045° SSW37.644°2024-12-21 20:00:49.055Z148.388° SSE
4 mins2024-12-22 12:25:49.055Z221.367° SW2024-12-22 12:27:49.055Z77.657° E41.699°2024-12-22 12:29:49.055Z53.663° ENE
|